| time (UTC) | temp F | wind direction | speed MPH | gust MPH | rain 1hr in | rain 24hr in | rain mn in | humidity % | barometer mb |
| 20260906023032 | 73 | 317 | 2.0 | 5.0 | 0.00 | 0.31 | 0.31 | 54 | 1012.8 |
| 20260906021532 | 73 | 313 | 3.0 | 4.0 | 0.00 | 0.31 | 0.31 | 54 | 1012.5 |
| 20260906020032 | 73 | 302 | 1.0 | 2.0 | 0.00 | 0.31 | 0.31 | 55 | 1012.6 |
| 20260906014543 | 73 | 302 | 2.0 | 3.0 | 0.00 | 0.31 | 0.31 | 55 | 1012.6 |
| 20260906013033 | 74 | 303 | 0.0 | 0.0 | 0.00 | 0.31 | 0.31 | 54 | 1012.5 |
| 20260906011530 | 74 | 303 | 0.0 | 0.0 | 0.00 | 0.31 | 0.31 | 55 | 1012.3 |
| 20260906010030 | 74 | 303 | 0.0 | 0.0 | 0.00 | 0.31 | 0.31 | 58 | 1012.0 |
| 20260906004530 | 75 | 303 | 0.0 | 1.0 | 0.00 | 0.31 | 0.31 | 58 | 1012.1 |
| 20260906003030 | 76 | 302 | 1.0 | 2.0 | 0.00 | 0.31 | 0.31 | 59 | 1012.1 |
| 20260906001529 | 76 | 302 | 0.0 | 2.0 | 0.00 | 0.31 | 0.31 | 61 | 1011.7 |
| 20260906000028 | 78 | 302 | 1.0 | 3.0 | 0.00 | 0.31 | 0.31 | 63 | 1011.5 |
| 20260905234532 | 79 | 302 | 1.0 | 4.0 | 0.00 | 0.31 | 0.31 | 61 | 1011.4 |
| 20260905233028 | 81 | 301 | 1.0 | 2.0 | 0.00 | 0.31 | 0.31 | 60 | 1011.1 |
| 20260905231527 | 82 | 302 | 0.0 | 2.0 | 0.00 | 0.31 | 0.31 | 59 | 1011.3 |
| 20260905230028 | 83 | 301 | 0.0 | 1.0 | 0.00 | 0.31 | 0.31 | 58 | 1011.2 |
| 20260905224534 | 82 | 301 | 1.0 | 3.0 | 0.00 | 0.31 | 0.31 | 58 | 1011.1 |
| 20260905223033 | 82 | 281 | 1.0 | 3.0 | 0.00 | 0.31 | 0.31 | 57 | 1011.1 |
| 20260905221527 | 81 | 257 | 2.0 | 4.0 | 0.00 | 0.31 | 0.31 | 56 | 1011.1 |
| 20260905220027 | 81 | 360 | 2.0 | 4.0 | 0.00 | 0.31 | 0.31 | 57 | 1011.1 |
| 20260905214526 | 80 | 360 | 4.0 | 8.0 | 0.00 | 0.31 | 0.31 | 56 | 1011.3 |
| 20260905213025 | 78 | 250 | 2.0 | 7.0 | 0.00 | 0.31 | 0.31 | 55 | 1011.6 |
| 20260905211524 | 76 | 187 | 2.0 | 4.0 | 0.00 | 0.31 | 0.31 | 50 | 1011.7 |
| 20260905210023 | 74 | 256 | 1.0 | 6.0 | 0.00 | 0.31 | 0.31 | 50 | 1011.8 |
| 20260905204522 | 74 | 251 | 1.0 | 6.0 | 0.00 | 0.31 | 0.31 | 50 | 1012.2 |
| 20260905203022 | 72 | 284 | 2.0 | 4.0 | 0.00 | 0.31 | 0.31 | 51 | 1012.5 |
| 20260905201522 | 72 | 280 | 1.0 | 3.0 | 0.00 | 0.31 | 0.31 | 51 | 1012.7 |
| 20260905200025 | 71 | 299 | 5.0 | 10.0 | 0.01 | 0.31 | 0.31 | 51 | 1012.4 |
| 20260905194524 | 70 | 305 | 0.0 | 8.0 | 0.09 | 0.31 | 0.31 | 54 | 1012.1 |
| 20260905193023 | 69 | 215 | 2.0 | 3.0 | 0.31 | 0.31 | 0.31 | 58 | 1012.6 |
| 20260905191523 | 69 | 175 | 3.0 | 7.0 | 0.31 | 0.31 | 0.31 | 59 | 1013.0 |
| 20260905190039 | 70 | 289 | 2.0 | 10.0 | 0.31 | 0.31 | 0.31 | 63 | 1011.8 |
| 20260905184517 | 73 | 290 | 4.0 | 12.0 | 0.24 | 0.24 | 0.24 | 62 | 1013.5 |
| 20260905183016 | 83 | 9 | 16.0 | 25.0 | 0.03 | 0.03 | 0.03 | 47 | 1013.5 |
| 20260905181516 | 92 | 355 | 8.0 | 25.0 | 0.00 | 0.00 | 0.00 | 41 | 1011.9 |
| 20260905180013 | 93 | 322 | 6.0 | 10.0 | 0.00 | 0.00 | 0.00 | 40 | 1011.9 |
| 20260905174506 | 93 | 360 | 4.0 | 9.0 | 0.00 | 0.00 | 0.00 | 41 | 1012.4 |
| 20260905173003 | 92 | 295 | 0.0 | 6.0 | 0.00 | 0.00 | 0.00 | 46 | 1012.9 |
| 20260905171503 | 92 | 281 | 5.0 | 8.0 | 0.00 | 0.00 | 0.00 | 41 | 1013.0 |
| 20260905170003 | 93 | 269 | 2.0 | 5.0 | 0.00 | 0.00 | 0.00 | 42 | 1013.1 |
| 20260905164502 | 92 | 5 | 4.0 | 9.0 | 0.00 | 0.00 | 0.00 | 43 | 1013.4 |
| 20260905163001 | 92 | 40 | 0.0 | 4.0 | 0.00 | 0.00 | 0.00 | 43 | 1013.6 |
| 20260905161501 | 91 | 25 | 3.0 | 9.0 | 0.00 | 0.00 | 0.00 | 41 | 1013.7 |
| 20260905160116 | 90 | 265 | 0.0 | 0.0 | 0.00 | 0.00 | 0.00 | 47 | 1013.7 |
| 20260905154556 | 90 | 333 | 0.0 | 0.0 | 0.00 | 0.00 | 0.00 | 48 | 1014.0 |
| 20260905153100 | 89 | 252 | 0.0 | 0.0 | 0.00 | 0.00 | 0.00 | 46 | 1013.9 |
| 20260905151550 | 88 | 259 | 0.0 | 0.0 | 0.00 | 0.00 | 0.00 | 43 | 1013.7 |
| 20260905150051 | 88 | 149 | 0.0 | 0.0 | 0.00 | 0.00 | 0.00 | 44 | 1014.0 |
| 20260905144547 | 86 | 268 | 0.0 | 0.0 | 0.00 | 0.00 | 0.00 | 47 | 1014.1 |
| 20260905143044 | 86 | 247 | 0.0 | 0.0 | 0.00 | 0.00 | 0.00 | 47 | 1014.0 |
| 20260905141552 | 85 | 242 | 0.0 | 0.0 | 0.00 | 0.00 | 0.00 | 47 | 1013.9 |
| 20260905140042 | 83 | 242 | 0.0 | 0.0 | 0.00 | 0.00 | 0.00 | 48 | 1014.0 |
| 20260905134541 | 83 | 160 | 0.0 | 0.0 | 0.00 | 0.00 | 0.00 | 49 | 1014.1 |
| 20260905133039 | 83 | 142 | 0.0 | 0.0 | 0.00 | 0.00 | 0.00 | 50 | 1014.2 |
| 20260905131546 | 82 | 81 | 0.0 | 0.0 | 0.00 | 0.00 | 0.00 | 50 | 1014.2 |
| 20260905130038 | 79 | 46 | 0.0 | 0.0 | 0.00 | 0.00 | 0.00 | 51 | 1014.3 |
| 20260905124526 | 77 | 46 | 0.0 | 0.0 | 0.00 | 0.00 | 0.00 | 45 | 1014.3 |
| 20260905123021 | 75 | 46 | 0.0 | 0.0 | 0.00 | 0.00 | 0.00 | 44 | 1014.2 |
| 20260905121521 | 74 | 46 | 0.0 | 0.0 | 0.00 | 0.00 | 0.00 | 47 | 1014.2 |
| 20260905120019 | 73 | 335 | 0.0 | 0.0 | 0.00 | 0.00 | 0.00 | 49 | 1014.1 |
| 20260905114519 | 72 | 334 | 0.0 | 0.0 | 0.00 | 0.00 | 0.00 | 47 | 1014.0 |
| 20260905113018 | 72 | 335 | 0.0 | 0.0 | 0.00 | 0.00 | 0.00 | 46 | 1013.9 |
| 20260905111523 | 72 | 335 | 0.0 | 0.0 | 0.00 | 0.00 | 0.00 | 45 | 1013.6 |
| 20260905110016 | 72 | 335 | 0.0 | 0.0 | 0.00 | 0.00 | 0.00 | 45 | 1013.4 |
| 20260905104514 | 72 | 334 | 0.0 | 0.0 | 0.00 | 0.00 | 0.00 | 44 | 1013.0 |
| 20260905103016 | 73 | 335 | 0.0 | 0.0 | 0.00 | 0.00 | 0.00 | 43 | 1013.0 |
| 20260905101516 | 73 | 335 | 0.0 | 0.0 | 0.00 | 0.00 | 0.00 | 43 | 1012.9 |
| 20260905100019 | 73 | 335 | 0.0 | 0.0 | 0.00 | 0.00 | 0.00 | 43 | 1012.9 |
| 20260905094514 | 73 | 335 | 0.0 | 0.0 | 0.00 | 0.00 | 0.00 | 44 | 1012.9 |
| 20260905093013 | 73 | 335 | 0.0 | 0.0 | 0.00 | 0.00 | 0.00 | 43 | 1012.6 |
| 20260905091512 | 73 | 335 | 0.0 | 0.0 | 0.00 | 0.00 | 0.00 | 44 | 1012.8 |
| 20260905090013 | 73 | 335 | 0.0 | 0.0 | 0.00 | 0.00 | 0.00 | 44 | 1012.9 |
| 20260905084508 | 73 | 335 | 0.0 | 0.0 | 0.00 | 0.00 | 0.00 | 44 | 1013.1 |
| 20260905083006 | 74 | 335 | 0.0 | 0.0 | 0.00 | 0.00 | 0.00 | 44 | 1013.3 |
| 20260905081504 | 74 | 335 | 0.0 | 0.0 | 0.00 | 0.00 | 0.00 | 44 | 1013.5 |
| 20260905080005 | 74 | 335 | 0.0 | 0.0 | 0.00 | 0.00 | 0.00 | 44 | 1013.5 |
| 20260905074507 | 74 | 335 | 0.0 | 0.0 | 0.00 | 0.00 | 0.00 | 44 | 1013.4 |
| 20260905073002 | 74 | 335 | 0.0 | 0.0 | 0.00 | 0.00 | 0.00 | 44 | 1013.5 |
| 20260905070104 | 75 | 335 | 0.0 | 0.0 | 0.00 | 0.00 | 0.00 | 47 | 1013.9 |
| 20260905064557 | 75 | 334 | 0.0 | 0.0 | 0.00 | 0.00 | 0.00 | 47 | 1014.1 |
| 20260905063057 | 76 | 333 | 0.0 | 0.0 | 0.00 | 0.00 | 0.00 | 48 | 1014.2 |
| 20260905060057 | 76 | 349 | 0.0 | 0.0 | 0.00 | 0.00 | 0.00 | 56 | 1014.6 |
| 20260905054556 | 76 | 349 | 0.0 | 0.0 | 0.00 | 0.00 | 0.00 | 56 | 1014.8 |
| 20260905053136 | 76 | 349 | 0.0 | 0.0 | 0.00 | 0.00 | 0.00 | 57 | 1014.8 |
| 20260905050055 | 77 | 350 | 0.0 | 0.0 | 0.00 | 0.00 | 0.00 | 60 | 1014.6 |
| 20260905044555 | 77 | 350 | 0.0 | 0.0 | 0.00 | 0.00 | 0.00 | 61 | 1014.7 |
| 20260905043055 | 77 | 350 | 0.0 | 0.0 | 0.00 | 0.00 | 0.00 | 63 | 1014.7 |
| 20260905040054 | 79 | 9 | 0.0 | 0.0 | 0.00 | 0.00 | 0.00 | 62 | 1014.7 |
| 20260905034554 | 78 | 111 | 0.0 | 0.0 | 0.00 | 0.00 | 0.00 | 63 | 1014.4 |
| 20260905033101 | 78 | 111 | 0.0 | 0.0 | 0.00 | 0.00 | 0.00 | 63 | 1014.4 |
| 20260905030053 | 80 | 110 | 0.0 | 0.0 | 0.00 | 0.00 | 0.00 | 63 | 1014.6 |
| 20260905024605 | 80 | 111 | 0.0 | 0.0 | 0.00 | 0.00 | 0.00 | 63 | 1014.6 |